Lufkin, TX

6:51 PM CDT on October 21, 2017 (GMT -0500)
Angelina County

Weather History for KLFK - August, 2014

Change the Weather History Date:

Friday, August 8, 2014

  Actual Average Record
Temperature  
Mean Temperature 88 °F 83 °F  
Max Temperature 97 °F 95 °F 106 °F (1934)
Min Temperature 78 °F 72 °F 60 °F (1920)
Degree Days  
Heating Degree Days 0 0  
Month to date heating degree days 0 0  
Since 1 June heating degree days 0 0  
Since 1 July heating degree days 0 0  
Cooling Degree Days 23 18  
Month to date cooling degree days 151 144  
Year to date cooling degree days 1766 1615  
Since 1 June cooling degree days 1270 1146  
Growing Degree Days 37 (Base 50)    
Moisture  
Dew Point 75 °F    
Average Humidity 68    
Maximum Humidity 91    
Minimum Humidity 45    
Precipitation  
Precipitation 0.00 in 0.10 in 2.12 in (1994)
Month to date precipitation 0.43 0.79  
Year to date precipitation 29.75 28.04  
Snow  
Snow 0.00 in - - ()
Month to date snowfall 0.0  
Since 1 June snowfall 0.0  
Since 1 July snowfall 0.0  
Snow Depth 0.00 in    
Sea Level Pressure  
Sea Level Pressure 29.95 in    
Wind  
Wind Speed 6 mph (South)    
Max Wind Speed 14 mph    
Max Gust Speed 18 mph    
Visibility 9 miles    
Events      
T = Trace of Precipitation, MM = Missing Value Source: NWS Daily Summary

Daily Weather History Graph

Daily Weather History Graph

Search for Another Location

Airport or City:

Trip Planner

Search our weather history database for the weather conditions in past years. The results will help you decide how hot, cold, wet, or windy it might be!

Date:

Astronomy

Aug. 08, 2014 Rise Set
Actual Time 6:40 AM CDT 8:08 PM CDT
Civil Twilight 6:14 AM CDT 8:34 PM CDT
Nautical Twilight 5:43 AM CDT 9:05 PM CDT
Astronomical Twilight 5:10 AM CDT 9:37 PM CDT
Moon 6:19 PM CDT (8/8) 4:16 AM CDT (8/8)
Length of Visible Light 14h 20m
Length of Day
13h 28m
Waxing Gibbous, 94% of the Moon is Illuminated
Aug 8
Waxing Gibbous
Aug 10
Full
Aug 17
Last Quarter
Aug 25
New
Sep 2
First Quarter

Hourly Weather History & Observations

Time (CDT) Temp. Heat Index Dew Point Humidity Pressure Visibility Wind Dir Wind Speed Gust Speed Precip Events Conditions
12:53 AM 81.0 °F 87.3 °F 75.9 °F 85% 29.91 in 10.0 mi SSE 5.8 mph - N/A   Clear
1:53 AM 80.1 °F 85.1 °F 75.0 °F 85% 29.91 in 10.0 mi South 4.6 mph - N/A   Clear
2:53 AM 80.1 °F 85.1 °F 75.0 °F 85% 29.92 in 10.0 mi South 8.1 mph - N/A   Clear
3:53 AM 80.1 °F 85.1 °F 75.0 °F 85% 29.92 in 10.0 mi South 3.5 mph - N/A   Clear
4:53 AM 79.0 °F - 75.0 °F 88% 29.94 in 9.0 mi South 3.5 mph - N/A   Scattered Clouds
5:53 AM 78.1 °F - 75.0 °F 90% 29.94 in 7.0 mi SE 3.5 mph - N/A   Clear
6:25 AM 78.1 °F - 73.9 °F 87% 29.96 in 6.0 mi Calm Calm - N/A   Mostly Cloudy
6:53 AM 78.1 °F - 75.0 °F 90% 29.96 in 5.0 mi SE 4.6 mph - N/A   Mostly Cloudy
7:02 AM 78.1 °F - 75.0 °F 90% 29.97 in 5.0 mi Calm Calm - N/A   Mostly Cloudy
7:53 AM 79.0 °F - 75.9 °F 90% 29.97 in 5.0 mi SE 4.6 mph - N/A   Overcast
8:10 AM 80.1 °F 85.4 °F 75.9 °F 87% 29.99 in 6.0 mi SSE 3.5 mph - N/A   Overcast
8:36 AM 81.0 °F 87.9 °F 77.0 °F 88% 30.00 in 8.0 mi South 5.8 mph - N/A   Mostly Cloudy
8:53 AM 82.9 °F 91.8 °F 77.0 °F 82% 29.99 in 10.0 mi South 4.6 mph - N/A   Mostly Cloudy
9:19 AM 84.0 °F 93.7 °F 77.0 °F 79% 30.00 in 10.0 mi SSW 5.8 mph - N/A   Mostly Cloudy
9:53 AM 87.1 °F 97.3 °F 75.9 °F 69% 29.99 in 10.0 mi SSW 9.2 mph 17.3 mph N/A   Overcast
10:06 AM 89.1 °F 101.4 °F 77.0 °F 67% 30.01 in 10.0 mi WSW 9.2 mph - N/A   Overcast
10:46 AM 90.0 °F 100.2 °F 75.0 °F 61% 30.01 in 10.0 mi SSW 10.4 mph - N/A   Partly Cloudy
10:53 AM 90.0 °F 100.2 °F 75.0 °F 61% 29.99 in 10.0 mi SSW 11.5 mph - N/A   Partly Cloudy
11:53 AM 91.9 °F 101.3 °F 73.9 °F 55% 30.00 in 10.0 mi SW 11.5 mph - N/A   Mostly Cloudy
12:53 PM 93.9 °F 105.4 °F 75.0 °F 54% 29.97 in 10.0 mi SSW 9.2 mph - N/A   Clear
1:53 PM 96.1 °F 108.6 °F 75.0 °F 51% 29.95 in 10.0 mi SSW 11.5 mph - N/A   Partly Cloudy
2:53 PM 96.1 °F 104.9 °F 72.0 °F 46% 29.94 in 10.0 mi WSW 6.9 mph - N/A   Partly Cloudy
3:53 PM 96.1 °F 107.1 °F 73.9 °F 49% 29.92 in 10.0 mi South 6.9 mph - N/A   Scattered Clouds
4:53 PM 96.1 °F 105.6 °F 73.0 °F 47% 29.90 in 10.0 mi SSE 8.1 mph - N/A   Partly Cloudy
5:53 PM 96.1 °F 105.6 °F 73.0 °F 47% 29.89 in 10.0 mi South 6.9 mph - N/A   Clear
6:53 PM 93.9 °F 105.4 °F 75.0 °F 54% 29.88 in 10.0 mi SE 6.9 mph - N/A   Clear
7:53 PM 90.0 °F 101.3 °F 75.9 °F 63% 29.89 in 10.0 mi ESE 3.5 mph - N/A   Clear
8:53 PM 86.0 °F 96.9 °F 77.0 °F 74% 29.91 in 10.0 mi SE 3.5 mph - N/A   Clear
9:53 PM 84.9 °F 94.1 °F 75.9 °F 74% 29.94 in 10.0 mi SSE 4.6 mph - N/A   Clear
10:53 PM 84.0 °F 92.6 °F 75.9 °F 76% 29.96 in 10.0 mi SSE 6.9 mph - N/A   Clear
11:53 PM 82.0 °F 89.4 °F 75.9 °F 82% 29.97 in 10.0 mi South 5.8 mph - N/A   Clear